Temp
-4 -4 -4 -5 -5 -5 -5 -5 -5 -5 -5 -6 -6 -6 -6 -7 -7 -8 -8 -8 -8 -8 -8 -8 -8 -8 -8 -8 -8 -9 -9 -10 -10 -10 -9 -10 -10 -11 -11 -11 -11 -11 -11
-4 -4 -4 -4 -5 -5 -5 -5 -5 -5 -5 -6 -6 -6 -6 -6 -7 -8 -8 -8 -8 -8 -8 -8 -9 -8 -9 -9 -8 -9 -9 -10 -10 -9 -9 -10 -11 -11 -12 -12 -12 -12 -12
-5 -4 -4 -4 -4 -5 -5 -5 -5 -6 -6 -6 -6 -6 -6 -6 -6 -7 -9 -9 -8 -8 -8 -8 -9 -9 -9 -8 -8 -8 -9 -10 -10 -9 -10 -10 -12 -12 -13 -13 -13 -13 -14
-5 -4 -5 -4 -4 -5 -5 -5 -5 -5 -6 -6 -6 -6 -6 -6 -6 -7 -8 -9 -9 -8 -9 -8 -9 -9 -9 -9 -8 -8 -9 -10 -9 -9 -9 -10 -11 -12 -14 -14 -14 -14 -14
-6 -5 -4 -4 -4 -5 -5 -5 -5 -5 -5 -6 -6 -6 -6 -6 -6 -7 -8 -9 -9 -9 -9 -8 -9 -9 -9 -9 -8 -8 -9 -9 -9 -9 -9 -9 -10 -11 -13 -14 -13 -13 -14
-5 -5 -5 -4 -4 -5 -5 -5 -5 -5 -5 -5 -6 -6 -6 -6 -6 -6 -7 -8 -9 -9 -9 -9 -9 -9 -9 -9 -8 -8 -9 -9 -9 -9 -9 -9 -10 -11 -12 -13 -14 -14 -13
-5 -5 -6 -5 -5 -5 -4 -4 -4 -4 -5 -5 -5 -5 -6 -6 -6 -6 -7 -8 -9 -9 -9 -9 -9 -9 -9 -9 -9 -8 -9 -9 -9 -8 -9 -9 -10 -11 -11 -12 -13 -13 -12
-6 -6 -6 -6 -6 -5 -5 -5 -4 -4 -5 -5 -5 -5 -5 -5 -6 -6 -7 -7 -9 -9 -9 -9 -9 -9 -9 -9 -9 -8 -8 -8 -9 -8 -9 -9 -9 -10 -10 -11 -12 -12 -12
-7 -6 -6 -6 -6 -6 -5 -5 -4 -4 -5 -5 -5 -5 -5 -5 -6 -6 -6 -7 -8 -9 -9 -9 -9 -9 -9 -9 -9 -9 -9 -8 -9 -8 -9 -8 -9 -9 -10 -10 -11 -11 -11
-7 -7 -6 -6 -6 -6 -6 -5 -5 -5 -5 -5 -5 -5 -5 -5 -6 -6 -6 -6 -8 -9 -9 -9 -9 -9 -9 -9 -9 -9 -9 -8 -8 -9 -9 -8 -8 -9 -10 -10 -10 -10 -10
-7 -7 -7 -6 -6 -6 -7 -6 -5 -5 -5 -5 -5 -5 -5 -5 -6 -6 -6 -6 -7 -8 -9 -9 -9 -9 -9 -9 -9 -9 -9 -8 -8 -9 -8 -8 -8 -9 -10 -10 -9 -10 -10
-7 -7 -7 -6 -7 -7 -7 -7 -6 -6 -5 -5 -5 -5 -6 -6 -6 -5 -6 -6 -7 -8 -9 -9 -9 -9 -9 -9 -9 -9 -9 -9 -8 -8 -8 -8 -8 -8 -9 -10 -9 -9 -10
-8 -7 -7 -7 -7 -7 -7 -7 -7 -7 -6 -6 -6 -6 -6 -5 -6 -5 -6 -7 -7 -8 -8 -9 -9 -9 -9 -9 -9 -9 -9 -9 -8 -8 -8 -8 -8 -8 -9 -9 -10 -10 -9
-8 -8 -7 -7 -7 -7 -7 -7 -7 -7 -7 -7 -6 -6 -7 -6 -6 -6 -6 -7 -7 -7 -7 -8 -9 -9 -9 -9 -9 -9 -9 -9 -8 -8 -8 -8 -8 -8 -8 -9 -10 -9 -9
-9 -8 -8 -7 -7 -7 -7 -7 -7 -6 -8 -8 -7 -7 -7 -7 -6 -7 -6 -6 -6 -7 -7 -8 -9 -9 -9 -10 -9 -9 -9 -9 -9 -8 -8 -9 -8 -8 -8 -9 -9 -9 -9
-9 -8 -8 -8 -8 -8 -8 -8 -8 -7 -7 -7 -8 -8 -8 -7 -7 -8 -7 -7 -6 -7 -7 -8 -8 -9 -9 -9 -10 -9 -9 -9 -9 -8 -8 -9 -9 -8 -8 -8 -9 -9 -10
-9 -9 -8 -8 -8 -8 -8 -7 -7 -7 -6 -6 -6 -8 -8 -8 -8 -8 -8 -7 -7 -7 -7 -7 -7 -8 -9 -9 -10 -9 -9 -9 -9 -9 -8 -8 -9 -8 -8 -8 -8 -9 -9
-9 -9 -9 -8 -9 -8 -8 -8 -7 -7 -7 -6 -6 -7 -7 -8 -8 -8 -6 -5 -7 -7 -7 -7 -7 -7 -8 -9 -9 -10 -9 -9 -9 -9 -9 -8 -8 -9 -8 -8 -8 -9 -9
-10 -10 -9 -8 -9 -8 -8 -7 -7 -7 -7 -5 -5 -5 -7 -8 -7 -7 -8 -6 -7 -7 -7 -7 -6 -7 -7 -9 -10 -10 -9 -9 -9 -9 -9 -8 -8 -9 -9 -9 -8 -8 -9
-10 -10 -9 -9 -9 -9 -8 -8 -8 -8 -7 -5 -5 -7 -7 -8 -8 -7 -8 -8 -7 -7 -7 -7 -7 -7 -7 -7 -8 -10 -9 -9 -9 -9 -9 -9 -9 -8 -8 -9 -9 -9 -8
-11 -11 -10 -10 -9 -10 -9 -9 -9 -8 -7 -7 -5 -8 -9 -8 -7 -7 -7 -7 -7 -7 -8 -7 -7 -7 -7 -7 -8 -8 -9 -9 -9 -9 -9 -9 -9 -9 -9 -9 -9 -9 -9
-12 -11 -11 -10 -10 -10 -9 -10 -9 -9 -9 -9 -7 -7 -6 -6 -7 -6 -7 -7 -7 -7 -7 -7 -7 -7 -7 -7 -7 -7 -8 -9 -9 -9 -9 -8 -9 -9 -9 -9 -9 -9 -9
-13 -12 -11 -11 -10 -10 -9 -9 -9 -8 -8 -8 -7 -7 -6 -7 -6 -6 -6 -6 -6 -6 -6 -6 -6 -6 -7 -7 -8 -7 -8 -9 -8 -8 -9 -9 -8 -9 -8 -9 -9 -9 -9
-13 -13 -12 -11 -10 -10 -9 -9 -9 -8 -8 -8 -8 -8 -7 -7 -7 -7 -6 -6 -6 -6 -6 -6 -5 -5 -6 -6 -7 -7 -7 -9 -10 -9 -9 -9 -9 -9 -9 -9 -9 -10 -9
-12 -12 -12 -11 -11 -10 -9 -9 -9 -9 -9 -8 -8 -8 -7 -7 -7 -7 -6 -6 -6 -7 -7 -6 -5 -5 -4 -6 -7 -8 -8 -8 -9 -10 -10 -9 -9 -9 -9 -9 -9 -9 -9
-13 -12 -12 -11 -11 -10 -9 -9 -10 -9 -9 -10 -9 -8 -8 -8 -7 -7 -7 -6 -6 -7 -6 -6 -5 -5 -5 -6 -7 -7 -8 -8 -8 -9 -10 -9 -9 -9 -9 -9 -9 -9 -9
Height
5932 5934 5936 5936 5938 5938 5939 5939 5939 5938 5937 5936 5933 5931 5931 5930 5928 5925 5924 5921 5917 5914 5909 5903 5898 5891 5884 5875 5865 5853 5841 5831 5822 5810 5800 5787 5775 5765 5757 5749 5743 5739 5736
5929 5931 5933 5934 5935 5936 5936 5937 5937 5937 5936 5934 5932 5930 5930 5929 5926 5924 5923 5920 5917 5914 5909 5904 5898 5892 5885 5876 5866 5854 5841 5830 5820 5809 5797 5784 5771 5760 5751 5744 5738 5733 5730
5926 5928 5929 5930 5931 5932 5933 5934 5935 5935 5934 5932 5930 5929 5929 5928 5926 5923 5921 5919 5916 5913 5909 5904 5898 5892 5885 5877 5867 5853 5841 5831 5820 5808 5794 5779 5768 5756 5745 5738 5733 5730 5726
5921 5923 5925 5927 5927 5929 5930 5931 5931 5931 5931 5930 5928 5928 5928 5925 5924 5921 5919 5918 5916 5911 5908 5904 5898 5892 5885 5878 5867 5855 5842 5830 5820 5808 5792 5779 5767 5753 5741 5735 5730 5727 5725
5918 5919 5920 5923 5924 5924 5925 5926 5926 5926 5926 5926 5925 5925 5925 5923 5921 5920 5917 5916 5914 5910 5909 5904 5898 5892 5886 5878 5869 5856 5844 5832 5821 5809 5794 5782 5768 5753 5741 5735 5731 5729 5728
5915 5915 5915 5917 5918 5920 5920 5920 5920 5921 5921 5922 5921 5921 5919 5919 5918 5917 5915 5914 5912 5910 5907 5903 5898 5893 5887 5879 5870 5859 5846 5835 5824 5812 5797 5786 5772 5757 5745 5737 5733 5731 5729
5909 5910 5912 5912 5913 5915 5916 5916 5915 5915 5916 5917 5916 5916 5916 5916 5915 5914 5913 5911 5910 5908 5906 5902 5898 5893 5887 5880 5871 5861 5850 5837 5827 5815 5802 5790 5776 5763 5752 5743 5737 5735 5733
5902 5904 5906 5908 5910 5910 5910 5910 5909 5909 5911 5911 5911 5911 5911 5911 5911 5911 5910 5908 5907 5906 5904 5901 5897 5893 5888 5881 5874 5864 5853 5842 5831 5820 5806 5796 5784 5771 5762 5753 5746 5741 5739
5896 5898 5901 5902 5904 5904 5905 5905 5905 5906 5907 5907 5906 5906 5907 5907 5906 5907 5906 5905 5904 5903 5902 5900 5897 5893 5887 5882 5875 5867 5857 5844 5834 5825 5813 5802 5791 5780 5771 5764 5757 5753 5749
5890 5893 5895 5897 5898 5899 5900 5901 5901 5902 5901 5900 5901 5902 5902 5901 5901 5903 5902 5902 5901 5901 5899 5898 5895 5892 5887 5882 5876 5869 5860 5850 5839 5829 5820 5810 5799 5788 5780 5774 5769 5764 5759
5883 5885 5887 5890 5892 5893 5894 5895 5895 5896 5896 5895 5897 5897 5896 5896 5895 5897 5897 5897 5897 5897 5896 5895 5894 5891 5887 5883 5877 5870 5862 5853 5843 5836 5829 5817 5805 5795 5787 5782 5777 5773 5769
5876 5877 5880 5884 5884 5885 5886 5888 5890 5890 5890 5890 5891 5891 5890 5890 5890 5891 5891 5892 5892 5892 5892 5892 5891 5889 5886 5883 5878 5872 5865 5857 5848 5840 5833 5822 5813 5803 5795 5789 5784 5780 5777
5868 5870 5873 5875 5875 5878 5880 5881 5882 5882 5883 5882 5883 5884 5885 5885 5885 5885 5885 5886 5886 5886 5886 5887 5887 5887 5885 5881 5878 5873 5867 5861 5852 5843 5836 5828 5820 5811 5803 5796 5793 5788 5783
5859 5863 5866 5867 5868 5870 5873 5875 5875 5876 5877 5875 5874 5875 5877 5880 5881 5877 5879 5878 5879 5880 5880 5882 5882 5882 5882 5880 5877 5873 5868 5862 5855 5848 5841 5835 5825 5819 5811 5804 5800 5796 5791
5851 5855 5857 5859 5861 5863 5864 5866 5867 5868 5869 5871 5870 5867 5867 5871 5871 5871 5873 5871 5871 5872 5875 5875 5877 5877 5879 5878 5876 5873 5869 5863 5858 5851 5845 5840 5832 5824 5817 5810 5806 5803 5798
5843 5846 5849 5851 5853 5856 5856 5856 5857 5859 5860 5863 5862 5860 5859 5859 5858 5860 5863 5865 5865 5865 5867 5868 5868 5871 5872 5874 5874 5872 5869 5865 5860 5854 5849 5843 5838 5832 5824 5817 5813 5810 5805
5833 5837 5840 5843 5845 5847 5849 5849 5849 5851 5850 5853 5853 5850 5850 5850 5849 5852 5855 5855 5857 5856 5857 5859 5861 5863 5864 5868 5869 5869 5867 5864 5861 5856 5851 5846 5842 5837 5830 5824 5818 5816 5814
5823 5828 5832 5834 5837 5839 5841 5843 5844 5844 5844 5841 5839 5837 5836 5841 5844 5848 5840 5836 5849 5847 5845 5850 5851 5854 5856 5859 5863 5864 5865 5862 5860 5857 5853 5850 5844 5841 5835 5830 5825 5820 5818
5812 5817 5822 5826 5828 5830 5833 5835 5835 5834 5832 5830 5829 5827 5828 5831 5835 5841 5844 5838 5838 5839 5838 5843 5843 5841 5844 5846 5852 5858 5860 5859 5857 5857 5853 5851 5848 5844 5840 5835 5832 5828 5825
5803 5808 5812 5816 5820 5822 5824 5827 5827 5826 5821 5820 5819 5818 5822 5825 5831 5837 5832 5830 5834 5834 5835 5837 5837 5835 5836 5838 5841 5847 5852 5853 5853 5853 5852 5851 5849 5846 5843 5838 5836 5833 5828
5793 5798 5803 5807 5809 5812 5815 5818 5819 5819 5818 5817 5818 5820 5824 5824 5824 5825 5827 5828 5831 5833 5834 5835 5834 5833 5834 5835 5835 5838 5844 5845 5847 5849 5849 5849 5848 5846 5844 5842 5838 5834 5834
5783 5788 5793 5799 5801 5804 5808 5811 5814 5815 5816 5816 5819 5820 5820 5819 5820 5820 5821 5825 5828 5829 5829 5830 5829 5829 5829 5829 5829 5831 5835 5839 5842 5843 5845 5846 5845 5844 5844 5842 5841 5838 5836
5777 5780 5784 5789 5795 5796 5800 5804 5809 5812 5815 5816 5815 5815 5815 5815 5814 5817 5818 5820 5821 5822 5824 5826 5824 5823 5823 5823 5823 5822 5826 5830 5836 5838 5840 5842 5842 5843 5841 5841 5840 5839 5837
5771 5774 5778 5783 5785 5788 5793 5796 5800 5805 5807 5809 5810 5809 5810 5809 5810 5812 5813 5812 5814 5817 5819 5818 5818 5817 5817 5815 5815 5814 5818 5822 5826 5832 5834 5836 5838 5839 5839 5838 5838 5836 5837
5763 5766 5770 5774 5777 5781 5785 5788 5791 5795 5798 5799 5801 5803 5803 5804 5805 5807 5810 5808 5809 5810 5811 5812 5812 5811 5809 5807 5806 5810 5812 5814 5815 5820 5827 5830 5831 5834 5834 5834 5836 5835 5833
5755 5759 5762 5765 5768 5772 5776 5779 5783 5785 5788 5790 5793 5795 5797 5799 5800 5802 5804 5804 5804 5804 5805 5805 5805 5804 5803 5800 5801 5804 5807 5808 5809 5810 5816 5822 5824 5826 5829 5828 5829 5831 5830
Wind_Speed
15 15 15 15 12 10 11 10 11 11 11 11 12 13 12 7 8 10 12 14 17 23 28 27 29 33 40 46 52 54 46 43 47 49 53 49 42 32 24 21 22 17 16
17 14 13 15 15 15 15 13 13 13 13 13 14 15 13 12 11 12 12 15 18 22 26 26 29 34 40 46 53 57 48 44 49 52 57 52 44 34 29 26 25 18 14
17 16 14 13 14 18 17 16 16 16 15 15 16 16 15 15 14 13 12 15 18 22 25 25 27 33 40 47 53 57 50 46 50 54 58 54 49 38 32 29 24 17 9
18 19 17 15 17 17 16 16 18 19 18 18 18 18 16 15 15 14 14 15 18 20 24 23 26 32 39 46 52 58 51 48 52 57 56 57 54 44 34 28 22 17 7
18 20 19 17 18 18 17 16 17 18 20 19 19 19 17 16 16 16 14 13 17 19 23 23 26 32 38 45 52 58 53 48 53 58 54 57 52 49 36 28 21 19 13
15 20 23 19 21 21 18 17 16 18 19 19 19 19 19 18 16 17 16 13 15 18 22 22 26 33 37 42 49 56 53 48 51 56 53 57 53 50 40 29 22 16 13
17 16 18 19 20 17 18 20 19 19 18 19 20 19 21 20 17 16 17 15 13 17 20 23 25 30 35 40 46 53 53 48 50 54 52 55 51 49 44 37 25 20 16
18 17 17 19 21 20 20 22 22 22 19 19 22 22 23 22 19 17 16 17 14 16 20 23 24 27 31 38 44 48 51 47 48 51 49 51 50 46 44 39 32 26 17
22 23 20 16 20 21 21 21 24 23 21 20 22 23 24 23 23 18 16 17 16 16 18 20 21 24 29 35 41 45 49 46 45 48 46 46 47 45 41 40 33 28 25
29 28 25 25 20 19 20 21 24 24 22 21 21 20 23 24 24 20 18 16 19 17 18 19 21 23 28 33 36 43 49 44 42 45 44 45 44 43 39 36 35 32 27
32 31 27 25 24 26 25 22 24 23 25 21 22 23 24 25 25 24 22 16 19 18 19 18 20 22 25 29 32 37 44 43 40 41 42 41 42 42 39 36 32 31 29
35 34 31 26 25 23 24 26 26 23 24 22 22 25 28 26 27 24 25 18 18 19 21 20 19 20 23 26 29 32 39 41 37 37 39 39 40 41 39 39 33 31 33
35 33 33 29 31 25 25 23 25 25 25 24 24 26 30 31 30 27 26 22 20 21 21 22 20 19 21 23 25 28 34 41 36 33 36 37 36 38 38 38 35 35 34
36 34 32 31 33 32 27 28 29 27 27 29 27 28 31 33 34 33 26 26 25 24 24 21 24 22 20 20 21 25 29 34 34 30 32 33 32 33 33 36 33 35 34
40 38 37 37 35 31 27 26 36 42 30 35 35 30 31 34 40 35 31 30 27 26 24 26 27 27 23 20 22 22 25 27 32 28 27 29 30 27 31 30 31 32 33
43 37 36 37 36 35 29 30 28 31 24 34 30 36 37 39 49 31 35 33 30 29 28 29 30 29 26 23 22 20 22 22 28 26 23 26 26 28 25 29 28 29 30
43 38 37 38 36 34 36 37 37 31 35 36 36 33 45 46 47 43 38 35 34 33 33 33 32 29 31 27 25 21 18 17 20 22 19 18 24 24 26 24 27 26 27
50 45 41 39 39 36 35 35 33 35 32 34 36 40 45 51 50 46 34 32 38 39 38 33 37 34 34 34 28 25 19 15 15 19 16 15 17 21 22 24 23 24 24
44 41 42 39 38 37 34 34 34 30 34 30 33 40 43 50 48 34 23 7 9 8 16 25 20 26 38 38 33 30 23 16 11 14 13 11 12 15 18 19 22 24 20
42 39 36 37 39 38 35 33 25 27 24 25 25 27 30 18 16 14 10 3 6 9 7 9 14 11 30 29 36 32 25 17 12 10 12 8 7 9 12 13 16 18 20
41 38 40 36 33 31 31 22 25 19 12 9 13 5 5 6 8 6 6 10 10 12 12 13 13 13 16 14 21 33 27 21 17 11 10 10 5 3 6 9 11 13 15
26 31 26 30 19 25 27 25 23 18 12 10 12 12 6 2 3 4 2 10 16 15 15 15 13 16 18 21 22 24 30 27 22 15 13 10 9 6 2 3 6 7 11
18 20 20 22 23 18 19 25 26 24 24 16 15 11 6 0 1 7 12 9 15 18 17 17 17 15 18 23 27 24 28 34 27 20 16 13 11 10 7 4 3 2 3
22 20 19 22 22 21 26 22 26 29 24 28 19 15 9 7 8 12 17 17 17 20 18 18 16 19 24 29 26 24 32 36 30 25 21 18 15 13 9 8 7 6 4
22 21 18 19 20 21 24 26 27 29 32 29 29 25 18 18 15 13 16 18 20 17 18 20 18 18 22 27 18 30 37 38 35 30 27 25 21 19 16 12 12 9 7
25 24 21 22 25 24 24 25 28 28 32 35 31 30 25 21 21 23 22 18 21 24 22 20 19 16 19 24 17 22 32 36 37 32 30 30 27 27 25 19 17 16 14
Wind_Direction
241 238 245 248 245 253 269 277 285 292 300 309 311 308 315 304 295 312 326 334 340 356 357 1 3 356 355 358 359 358 355 354 356 356 354 354 352 348 338 326 324 328 302
261 255 250 254 256 252 255 269 281 290 293 299 303 311 316 316 307 301 319 323 328 344 352 357 357 356 357 358 360 358 356 355 357 357 356 359 359 345 333 328 330 334 306
263 261 258 258 258 255 259 264 271 279 291 295 297 304 320 321 313 302 307 317 322 336 349 354 356 360 359 359 360 358 358 357 358 359 1 4 0 349 341 340 340 347 315
258 254 253 253 257 264 270 272 269 269 276 284 292 300 312 314 317 304 302 315 322 330 343 349 355 358 357 359 358 358 358 358 359 1 6 6 4 4 2 4 4 7 353
267 266 261 253 256 263 264 271 277 272 265 271 280 290 301 303 311 307 299 304 324 325 343 346 351 353 356 357 358 357 359 358 2 4 9 6 6 10 11 23 26 36 20
253 259 262 255 250 256 262 263 268 276 266 265 269 278 288 295 302 304 294 290 313 323 335 343 346 350 355 356 357 358 359 358 3 7 11 9 11 16 21 25 26 34 40
243 245 250 257 252 263 260 264 264 266 267 264 265 271 281 288 290 295 301 291 296 319 326 332 341 346 353 355 357 360 359 358 4 10 13 12 14 20 26 32 42 55 67
261 269 275 262 249 257 268 267 264 262 263 262 263 265 276 282 278 287 291 289 282 305 320 330 339 343 352 353 357 359 2 0 3 11 15 14 18 26 32 37 45 53 66
265 267 269 276 265 266 269 269 267 265 264 265 263 266 272 278 273 278 278 286 275 289 309 324 338 341 345 351 355 358 2 1 2 12 14 19 20 30 35 40 48 56 64
259 266 267 261 270 268 272 267 267 266 262 263 261 263 265 269 270 272 270 278 274 277 294 316 330 335 340 347 353 356 360 4 1 12 13 19 23 30 37 39 43 50 56
260 263 267 269 268 262 265 266 266 269 266 261 261 258 257 258 262 268 265 268 272 268 280 297 318 326 332 342 350 355 358 3 3 8 13 18 27 32 38 41 40 41 46
253 257 260 260 259 273 262 259 262 267 269 266 264 261 259 255 255 259 262 263 265 267 266 279 299 319 329 336 345 355 356 0 4 3 14 20 27 35 40 45 43 43 38
249 250 253 252 255 269 262 259 262 269 271 262 264 264 262 257 253 251 255 258 257 260 263 266 280 301 317 327 339 347 354 357 5 3 12 20 27 36 39 47 43 44 45
250 250 252 258 260 262 258 264 268 270 275 265 259 259 263 258 257 251 242 247 252 255 260 263 268 279 297 315 329 338 347 355 2 5 6 18 26 37 42 48 47 47 44
247 252 253 255 264 265 269 267 273 268 265 267 264 257 257 261 253 252 246 244 248 254 259 258 259 268 278 300 311 327 338 350 356 5 4 11 22 31 45 45 49 52 51
250 249 251 253 262 261 267 277 285 291 298 290 274 259 256 254 259 248 248 246 247 250 251 252 256 258 265 278 294 310 323 342 351 3 6 2 14 28 40 48 45 48 54
247 250 248 250 257 258 263 273 284 287 288 284 272 267 256 252 251 250 245 249 247 250 251 252 256 254 257 260 273 287 304 325 343 354 8 6 4 18 33 45 52 45 44
249 248 249 251 259 262 265 268 276 274 280 279 276 280 256 248 247 252 250 239 256 248 249 254 258 255 249 252 258 268 280 301 330 345 359 7 4 4 25 37 48 54 49
245 247 248 247 254 261 268 269 271 288 293 289 281 275 257 248 261 261 245 287 254 271 253 250 260 273 240 240 240 250 258 273 306 328 343 4 6 359 9 29 40 50 49
241 243 247 254 257 259 266 272 282 292 284 270 309 292 254 215 182 213 245 270 264 252 260 285 273 273 243 248 244 227 233 246 267 296 323 335 4 2 357 13 26 40 55
238 239 248 258 261 257 259 259 276 289 257 288 309 204 130 144 167 213 227 234 238 227 249 272 279 274 262 261 272 251 221 225 240 257 283 307 306 340 357 359 9 21 31
234 242 244 243 235 238 247 252 261 256 241 201 197 184 175 153 208 261 316 258 229 230 248 266 261 271 272 284 268 265 239 220 229 234 255 277 280 261 276 358 18 15 10
217 220 222 226 237 232 243 237 237 237 220 204 189 191 184 126 7 270 280 266 250 243 247 259 267 279 276 270 270 248 250 217 222 227 239 255 273 280 271 256 269 351 23
203 209 213 222 227 237 246 239 234 232 248 231 223 230 232 253 295 298 294 282 278 252 241 261 272 282 288 282 272 259 246 222 213 223 232 240 252 269 272 278 268 250 241
209 204 208 219 219 224 232 241 236 238 243 244 234 238 244 267 274 285 284 274 273 268 261 260 269 279 292 297 262 242 252 225 216 215 228 236 239 251 261 273 278 266 246
210 208 209 217 216 214 221 229 231 234 236 236 235 234 247 257 260 264 275 272 269 268 263 258 264 279 288 296 260 235 223 237 232 224 221 233 240 247 250 253 257 262 261